Overview Statistics Trail Chart Weather Telemetry Raw packets
 

This is the latest recevied weather packets stored in our database for station/object VE6HFD-WX. If no packets are shown the sender has not sent any weather packets the latest 10 day(s).

<< 82 83 84 85 86 87 88 >>
Time Temp. Humidity Pressure Rain* Wind** Luminosity Snow
1777415711 10° C 36% 1018.1 hPa 0 mm - - -
1777415411 10° C 37% 1018.1 hPa 0 mm - - -
1777415111 10° C 36% 1018.1 hPa 0 mm - - -
1777414781 10° C 37% 1018.2 hPa 0 mm - - -
1777414451 9.44° C 41% 1018.2 hPa 0 mm - - -
1777414151 9.44° C 38% 1018.3 hPa 0 mm - - -
1777413821 9.44° C 43% 1018.3 hPa 0 mm - - -
1777413491 9.44° C 42% 1018.3 hPa 0 mm - - -
1777413161 9.44° C 41% 1018.4 hPa 0 mm - - -
1777412861 9.44° C 43% 1018.4 hPa 0 mm - - -
1777412561 9.44° C 43% 1018.4 hPa 0 mm - - -
1777412231 9.44° C 41% 1018.4 hPa 0 mm - - -
1777411901 9.44° C 42% 1018.4 hPa 0 mm - - -
1777411571 9.44° C 44% 1018.4 hPa 0 mm - - -
1777411241 9.44° C 44% 1018.4 hPa 0 mm - - -
1777410941 8.89° C 43% 1018.4 hPa 0 mm - - -
1777410611 9.44° C 43% 1018.4 hPa 0 mm - - -
1777410311 8.89° C 43% 1018.4 hPa 0 mm - - -
1777410011 9.44° C 42% 1018.4 hPa 0 mm - - -
1777409711 9.44° C 43% 1018.3 hPa 0 mm - - -
1777409381 9.44° C 42% 1018.3 hPa 0 mm - - -
1777409051 8.89° C 43% 1020 hPa 0 mm - - -
1777408241 10.56° C 42% 1018.3 hPa 0 mm - - -
1777407792 10.56° C 42% 1018.3 hPa 0 mm - - -
1777407113 10.56° C 40% 1018.3 hPa 0 mm - - -

* Rain latest hour (hover to see other rain measurements)
** Current wind speed in m/s (hover to see current wind gust speed)